Time,TemperatureF,DewpointF,PressureIn,WindDirection,WindDirectionDegrees,WindSpeedMPH,WindSpeedGustMPH,Humidity,HourlyPrecipIn,Conditions,Clouds,dailyrainin,SoftwareType,DateUTC
2013-01-22 00:01:00,55.0,50.9,29.69,SW,225,9.3,9.3,86,0.00,,,0.00,VWS V14.01,2013-01-21 22:01:00,
2013-01-22 00:06:00,55.4,50.6,29.69,SSW,202,5.8,5.8,84,0.00,,,0.00,VWS V14.01,2013-01-21 22:06:00,
2013-01-22 00:12:00,55.9,50.8,29.70,SSW,202,6.7,6.7,83,0.00,,,0.00,VWS V14.01,2013-01-21 22:12:00,
2013-01-22 00:17:00,56.3,50.5,29.70,WSW,248,4.9,7.6,81,0.00,,,0.00,VWS V14.01,2013-01-21 22:17:00,
2013-01-22 00:22:00,56.5,50.4,29.70,WSW,248,2.4,2.4,80,0.00,,,0.00,VWS V14.01,2013-01-21 22:22:00,
2013-01-22 00:27:00,56.5,50.0,29.70,West,270,2.6,8.2,79,0.00,,,0.00,VWS V14.01,2013-01-21 22:27:00,
2013-01-22 00:32:00,56.5,50.0,29.70,WSW,248,5.5,5.5,79,0.00,,,0.00,VWS V14.01,2013-01-21 22:32:00,
2013-01-22 00:37:00,56.5,50.4,29.70,West,270,6.4,6.4,80,0.00,,,0.00,VWS V14.01,2013-01-21 22:37:00,
2013-01-22 00:42:00,56.5,50.0,29.70,WSW,248,9.8,9.8,79,0.00,,,0.00,VWS V14.01,2013-01-21 22:42:00,
2013-01-22 00:47:00,56.3,49.5,29.70,SSW,202,8.2,8.2,78,0.00,,,0.00,VWS V14.01,2013-01-21 22:47:00,
2013-01-22 00:52:00,56.3,49.5,29.70,SSW,202,9.3,9.3,78,0.00,,,0.00,VWS V14.01,2013-01-21 22:52:00,
2013-01-22 00:57:00,56.3,49.5,29.70,WSW,248,7.6,7.6,78,0.00,,,0.00,VWS V14.01,2013-01-21 22:57:00,
2013-01-22 01:02:00,56.3,49.5,29.70,SW,225,2.0,2.0,78,0.00,,,0.00,VWS V14.01,2013-01-21 23:02:00,
2013-01-22 01:07:00,55.9,48.8,29.70,South,180,8.0,9.6,77,0.00,,,0.00,VWS V14.01,2013-01-21 23:07:00,
2013-01-22 01:12:00,55.9,48.8,29.70,WSW,248,7.1,7.1,77,0.00,,,0.00,VWS V14.01,2013-01-21 23:12:00,
2013-01-22 01:17:00,55.6,48.5,29.71,WSW,248,6.0,8.0,77,0.00,,,0.00,VWS V14.01,2013-01-21 23:17:00,
2013-01-22 01:22:00,55.6,48.5,29.70,West,270,7.6,8.2,77,0.00,,,0.00,VWS V14.01,2013-01-21 23:22:00,
2013-01-22 01:27:00,55.6,48.5,29.70,West,270,11.4,11.4,77,0.00,,,0.00,VWS V14.01,2013-01-21 23:27:00,
2013-01-22 01:32:00,55.4,48.3,29.71,WSW,248,9.8,9.8,77,0.00,,,0.00,VWS V14.01,2013-01-21 23:32:00,
2013-01-22 01:37:00,55.4,47.9,29.71,West,270,6.0,6.0,76,0.00,,,0.00,VWS V14.01,2013-01-21 23:37:00,
2013-01-22 01:43:00,55.4,47.9,29.71,SW,225,0.0,4.9,76,0.00,,,0.00,VWS V14.01,2013-01-21 23:43:00,
2013-01-22 01:48:00,55.0,47.5,29.71,West,270,9.8,12.3,76,0.00,,,0.00,VWS V14.01,2013-01-21 23:48:00,
2013-01-22 01:53:00,55.0,46.8,29.71,WSW,248,1.5,6.0,74,0.00,,,0.00,VWS V14.01,2013-01-21 23:53:00,
2013-01-22 01:58:00,55.0,46.1,29.71,WSW,248,9.1,9.1,72,0.00,,,0.00,VWS V14.01,2013-01-21 23:58:00,
2013-01-22 02:03:00,55.0,45.7,29.71,West,270,6.9,6.9,71,0.00,,,0.00,VWS V14.01,2013-01-22 00:03:00,
2013-01-22 02:08:00,55.0,45.4,29.71,West,270,6.2,6.2,70,0.00,,,0.00,VWS V14.01,2013-01-22 00:08:00,
2013-01-22 02:13:00,55.0,44.2,29.71,WSW,248,10.2,10.2,67,0.00,,,0.00,VWS V14.01,2013-01-22 00:13:00,
2013-01-22 02:18:00,55.4,43.4,29.71,West,270,7.6,7.6,64,0.00,,,0.00,VWS V14.01,2013-01-22 00:18:00,
2013-01-22 02:23:00,55.6,43.2,29.71,WSW,248,9.3,9.3,63,0.00,,,0.00,VWS V14.01,2013-01-22 00:23:00,
2013-01-22 02:28:00,55.6,44.0,29.71,WSW,248,0.8,0.8,65,0.00,,,0.00,VWS V14.01,2013-01-22 00:28:00,
2013-01-22 02:33:00,55.6,44.4,29.71,West,270,6.0,10.7,66,0.00,,,0.00,VWS V14.01,2013-01-22 00:33:00,
2013-01-22 02:38:00,55.6,44.4,29.71,SW,225,11.4,11.4,66,0.00,,,0.00,VWS V14.01,2013-01-22 00:38:00,
2013-01-22 02:43:00,55.6,44.0,29.71,SW,225,1.3,1.3,65,0.00,,,0.00,VWS V14.01,2013-01-22 00:43:00,
2013-01-22 02:48:00,55.4,44.2,29.71,SSW,202,6.9,6.9,66,0.00,,,0.00,VWS V14.01,2013-01-22 00:48:00,
2013-01-22 02:53:00,55.4,44.2,29.71,WSW,248,5.8,8.9,66,0.00,,,0.00,VWS V14.01,2013-01-22 00:53:00,
2013-01-22 02:58:00,55.4,44.2,29.71,West,270,3.3,3.3,66,0.00,,,0.00,VWS V14.01,2013-01-22 00:58:00,
2013-01-22 03:03:00,55.6,44.4,29.71,SSW,202,6.0,8.7,66,0.00,,,0.00,VWS V14.01,2013-01-22 01:03:00,
2013-01-22 03:08:00,55.6,44.0,29.71,SSW,202,0.6,3.1,65,0.00,,,0.00,VWS V14.01,2013-01-22 01:08:00,
2013-01-22 03:13:00,55.6,44.4,29.72,West,270,0.0,0.0,66,0.00,,,0.00,VWS V14.01,2013-01-22 01:13:00,
2013-01-22 03:19:00,55.6,44.8,29.72,WSW,248,3.8,3.8,67,0.00,,,0.00,VWS V14.01,2013-01-22 01:19:00,
2013-01-22 03:24:00,55.6,44.8,29.72,SW,225,5.3,5.3,67,0.00,,,0.00,VWS V14.01,2013-01-22 01:24:00,
2013-01-22 03:29:00,55.6,44.8,29.72,West,270,4.2,9.8,67,0.00,,,0.00,VWS V14.01,2013-01-22 01:29:00,
2013-01-22 03:34:00,55.6,44.8,29.72,WSW,248,2.9,14.0,67,0.00,,,0.00,VWS V14.01,2013-01-22 01:34:00,
2013-01-22 03:39:00,55.6,44.8,29.72,WSW,248,4.9,9.6,67,0.00,,,0.00,VWS V14.01,2013-01-22 01:39:00,
2013-01-22 03:44:00,55.6,45.2,29.72,West,270,0.0,0.0,68,0.00,,,0.00,VWS V14.01,2013-01-22 01:44:00,
2013-01-22 03:49:00,55.6,45.6,29.72,WNW,292,7.8,7.8,69,0.00,,,0.00,VWS V14.01,2013-01-22 01:49:00,
2013-01-22 03:54:00,55.4,45.4,29.72,WSW,248,4.2,4.2,69,0.00,,,0.00,VWS V14.01,2013-01-22 01:54:00,
2013-01-22 03:59:00,55.4,45.8,29.72,SSW,202,3.1,3.1,70,0.00,,,0.00,VWS V14.01,2013-01-22 01:59:00,
2013-01-22 04:04:00,55.4,45.8,29.72,SSW,202,1.3,1.3,70,0.00,,,0.00,VWS V14.01,2013-01-22 02:04:00,
2013-01-22 04:09:00,55.4,45.8,29.72,SSW,202,7.1,7.1,70,0.00,,,0.00,VWS V14.01,2013-01-22 02:09:00,
2013-01-22 04:14:00,55.0,45.7,29.72,West,270,0.6,0.6,71,0.00,,,0.00,VWS V14.01,2013-01-22 02:14:00,
2013-01-22 04:19:00,55.0,45.4,29.71,SSE,158,0.0,0.0,70,0.00,,,0.00,VWS V14.01,2013-01-22 02:19:00,
2013-01-22 04:24:00,55.4,45.8,29.71,SW,225,6.7,7.3,70,0.00,,,0.00,VWS V14.01,2013-01-22 02:24:00,
2013-01-22 04:29:00,55.0,45.0,29.70,SSW,202,5.3,11.4,69,0.00,,,0.00,VWS V14.01,2013-01-22 02:29:00,
2013-01-22 04:35:00,55.4,45.0,29.70,SW,225,8.0,8.0,68,0.00,,,0.00,VWS V14.01,2013-01-22 02:35:00,
2013-01-22 04:40:00,55.4,45.0,29.71,SSW,202,8.7,13.1,68,0.00,,,0.00,VWS V14.01,2013-01-22 02:40:00,
2013-01-22 04:45:00,55.6,44.4,29.71,SSW,202,14.0,14.0,66,0.00,,,0.00,VWS V14.01,2013-01-22 02:45:00,
2013-01-22 04:50:00,55.8,44.2,29.71,SW,225,11.6,11.6,65,0.00,,,0.00,VWS V14.01,2013-01-22 02:50:00,
2013-01-22 04:55:00,55.9,44.3,29.70,SW,225,12.9,12.9,65,0.00,,,0.00,VWS V14.01,2013-01-22 02:55:00,
2013-01-22 05:00:00,55.8,44.2,29.71,SW,225,17.2,17.2,65,0.00,,,0.00,VWS V14.01,2013-01-22 03:00:00,
2013-01-22 05:05:00,55.9,44.7,29.71,SW,225,12.7,15.8,66,0.00,,,0.00,VWS V14.01,2013-01-22 03:05:00,
2013-01-22 05:10:00,55.8,44.6,29.71,SW,225,14.9,14.9,66,0.00,,,0.00,VWS V14.01,2013-01-22 03:10:00,
2013-01-22 05:15:00,55.8,44.6,29.71,SW,225,8.9,8.9,66,0.00,,,0.00,VWS V14.01,2013-01-22 03:15:00,
2013-01-22 05:20:00,55.6,44.4,29.71,SSW,202,4.4,4.4,66,0.00,,,0.00,VWS V14.01,2013-01-22 03:20:00,
2013-01-22 05:25:00,55.4,44.6,29.72,SSW,202,3.5,3.5,67,0.00,,,0.00,VWS V14.01,2013-01-22 03:25:00,
2013-01-22 05:30:00,55.4,45.0,29.72,SSW,202,2.9,2.9,68,0.00,,,0.00,VWS V14.01,2013-01-22 03:30:00,
2013-01-22 05:35:00,55.0,44.6,29.72,SSW,202,0.0,0.0,68,0.00,,,0.00,VWS V14.01,2013-01-22 03:35:00,
2013-01-22 05:40:00,54.7,44.3,29.72,SSW,202,0.0,1.5,68,0.00,,,0.00,VWS V14.01,2013-01-22 03:40:00,
2013-01-22 05:45:00,54.7,44.7,29.72,SSW,202,0.4,5.3,69,0.00,,,0.00,VWS V14.01,2013-01-22 03:45:00,
2013-01-22 05:50:00,54.7,44.7,29.72,WSW,248,0.0,0.0,69,0.00,,,0.00,VWS V14.01,2013-01-22 03:50:00,
2013-01-22 05:55:00,54.7,44.7,29.72,WSW,248,0.0,0.0,69,0.00,,,0.00,VWS V14.01,2013-01-22 03:55:00,
2013-01-22 06:00:00,54.7,44.7,29.72,WSW,248,0.0,0.0,69,0.00,,,0.00,VWS V14.01,2013-01-22 04:00:00,
2013-01-22 06:05:00,54.5,44.5,29.72,WSW,248,0.0,0.0,69,0.00,,,0.00,VWS V14.01,2013-01-22 04:05:00,
2013-01-22 06:11:00,54.5,44.9,29.72,SSW,202,3.8,3.8,70,0.00,,,0.00,VWS V14.01,2013-01-22 04:11:00,
2013-01-22 06:16:00,54.9,45.3,29.72,WSW,248,0.0,4.4,70,0.00,,,0.00,VWS V14.01,2013-01-22 04:16:00,
2013-01-22 06:21:00,54.9,45.3,29.72,SSW,202,6.0,6.0,70,0.00,,,0.00,VWS V14.01,2013-01-22 04:21:00,
2013-01-22 06:26:00,54.9,45.3,29.73,WSW,248,2.9,2.9,70,0.00,,,0.00,VWS V14.01,2013-01-22 04:26:00,
2013-01-22 06:31:00,54.9,45.3,29.73,WSW,248,3.5,3.5,70,0.00,,,0.00,VWS V14.01,2013-01-22 04:31:00,
2013-01-22 06:36:00,54.9,45.7,29.73,SW,225,9.6,9.6,71,0.00,,,0.00,VWS V14.01,2013-01-22 04:36:00,
2013-01-22 06:41:00,54.9,45.3,29.73,WSW,248,8.9,8.9,70,0.00,,,0.00,VWS V14.01,2013-01-22 04:41:00,
2013-01-22 06:46:00,54.7,45.1,29.73,SW,225,1.7,1.7,70,0.00,,,0.00,VWS V14.01,2013-01-22 04:46:00,
2013-01-22 06:51:00,54.7,45.1,29.73,WSW,248,6.0,6.0,70,0.00,,,0.00,VWS V14.01,2013-01-22 04:51:00,
2013-01-22 06:56:00,54.7,45.1,29.74,West,270,4.9,4.9,70,0.00,,,0.00,VWS V14.01,2013-01-22 04:56:00,
2013-01-22 07:00:00,54.7,45.1,29.74,West,270,2.9,2.9,70,0.00,,,0.00,VWS V14.01,2013-01-22 05:00:00,
2013-01-22 07:01:00,54.7,45.1,29.74,West,270,2.9,2.9,70,0.00,,,0.00,VWS V14.01,2013-01-22 05:01:00,
2013-01-22 07:02:00,54.7,45.1,29.74,WSW,248,4.9,4.9,70,0.00,,,0.00,VWS V14.01,2013-01-22 05:02:00,
2013-01-22 07:08:00,54.5,44.9,29.74,NNW,338,0.0,0.0,70,0.00,,,0.00,VWS V14.01,2013-01-22 05:08:00,
2013-01-22 07:13:00,54.1,44.9,29.74,West,270,0.0,0.0,71,0.00,,,0.00,VWS V14.01,2013-01-22 05:13:00,
2013-01-22 07:18:00,54.3,45.1,29.74,North,0,2.9,6.2,71,0.00,,,0.00,VWS V14.01,2013-01-22 05:18:00,
2013-01-22 07:23:00,53.8,45.0,29.75,WNW,292,0.0,1.3,72,0.00,,,0.00,VWS V14.01,2013-01-22 05:23:00,
2013-01-22 07:28:00,53.6,44.8,29.75,West,270,0.0,0.0,72,0.00,,,0.00,VWS V14.01,2013-01-22 05:28:00,
2013-01-22 07:33:00,53.6,45.1,29.75,West,270,0.0,0.0,73,0.00,,,0.00,VWS V14.01,2013-01-22 05:33:00,
2013-01-22 07:38:00,53.4,44.9,29.75,West,270,2.0,2.0,73,0.00,,,0.00,VWS V14.01,2013-01-22 05:38:00,
2013-01-22 07:43:00,53.2,44.7,29.75,NW,315,0.0,0.0,73,0.00,,,0.00,VWS V14.01,2013-01-22 05:43:00,
2013-01-22 07:48:00,53.4,44.9,29.75,NW,315,0.0,0.0,73,0.00,,,0.00,VWS V14.01,2013-01-22 05:48:00,
2013-01-22 07:53:00,54.0,44.8,29.75,North,0,7.6,8.2,71,0.00,,,0.00,VWS V14.01,2013-01-22 05:53:00,
2013-01-22 07:58:00,53.8,44.6,29.76,NNW,338,0.0,0.0,71,0.00,,,0.00,VWS V14.01,2013-01-22 05:58:00,
2013-01-22 08:03:00,53.8,45.0,29.75,NNW,338,0.0,0.0,72,0.00,,,0.00,VWS V14.01,2013-01-22 06:03:00,
2013-01-22 08:08:00,53.8,45.0,29.76,West,270,2.2,5.3,72,0.00,,,0.00,VWS V14.01,2013-01-22 06:08:00,
2013-01-22 08:13:00,54.3,45.1,29.76,NW,315,0.4,0.4,71,0.00,,,0.00,VWS V14.01,2013-01-22 06:13:00,
2013-01-22 08:18:00,54.5,45.3,29.76,WNW,292,0.0,0.0,71,0.00,,,0.00,VWS V14.01,2013-01-22 06:18:00,
2013-01-22 08:23:00,54.7,45.5,29.76,WNW,292,0.0,0.0,71,0.00,,,0.00,VWS V14.01,2013-01-22 06:23:00,
2013-01-22 08:29:00,55.0,45.4,29.76,SSW,202,0.0,0.0,70,0.00,,,0.00,VWS V14.01,2013-01-22 06:29:00,
2013-01-22 08:34:00,55.2,45.6,29.76,WSW,248,2.4,2.4,70,0.00,,,0.00,VWS V14.01,2013-01-22 06:34:00,
2013-01-22 08:39:00,55.4,45.4,29.77,WSW,248,0.0,0.0,69,0.00,,,0.00,VWS V14.01,2013-01-22 06:39:00,
2013-01-22 08:44:00,55.8,45.8,29.77,WSW,248,0.0,0.0,69,0.00,,,0.00,VWS V14.01,2013-01-22 06:44:00,
2013-01-22 08:49:00,56.1,46.4,29.78,WSW,248,0.0,0.0,70,0.00,,,0.00,VWS V14.01,2013-01-22 06:49:00,
2013-01-22 08:54:00,55.4,46.1,29.78,WSW,248,0.0,0.0,71,0.00,,,0.00,VWS V14.01,2013-01-22 06:54:00,
2013-01-22 08:59:00,55.4,46.5,29.78,WSW,248,0.0,0.0,72,0.00,,,0.00,VWS V14.01,2013-01-22 06:59:00,
2013-01-22 09:04:00,55.0,46.5,29.78,WSW,248,0.0,0.0,73,0.00,,,0.00,VWS V14.01,2013-01-22 07:04:00,
2013-01-22 09:09:00,55.6,46.7,29.79,WSW,248,0.0,0.0,72,0.00,,,0.00,VWS V14.01,2013-01-22 07:09:00,
2013-01-22 09:14:00,55.6,46.7,29.79,WSW,248,0.0,0.0,72,0.00,,,0.00,VWS V14.01,2013-01-22 07:14:00,
2013-01-22 09:19:00,55.9,46.6,29.79,WSW,248,0.0,0.0,71,0.00,,,0.00,VWS V14.01,2013-01-22 07:19:00,
2013-01-22 09:24:00,56.1,46.8,29.79,WSW,248,0.0,0.0,71,0.00,,,0.00,VWS V14.01,2013-01-22 07:24:00,
2013-01-22 09:29:00,55.9,45.8,29.79,WNW,292,0.0,0.0,69,0.00,,,0.00,VWS V14.01,2013-01-22 07:29:00,
2013-01-22 09:35:00,55.9,45.8,29.79,WNW,292,0.0,0.0,69,0.00,,,0.00,VWS V14.01,2013-01-22 07:35:00,
2013-01-22 09:40:00,56.3,46.2,29.79,West,270,1.1,1.1,69,0.00,,,0.00,VWS V14.01,2013-01-22 07:40:00,
2013-01-22 09:45:00,56.3,46.2,29.80,West,270,0.0,0.0,69,0.00,,,0.00,VWS V14.01,2013-01-22 07:45:00,
2013-01-22 09:50:00,56.3,46.2,29.80,West,270,0.0,0.0,69,0.00,,,0.00,VWS V14.01,2013-01-22 07:50:00,
2013-01-22 09:55:00,56.3,46.6,29.80,WNW,292,5.1,5.1,70,0.00,,,0.00,VWS V14.01,2013-01-22 07:55:00,
2013-01-22 10:00:00,56.3,46.2,29.80,WNW,292,4.2,4.2,69,0.00,,,0.00,VWS V14.01,2013-01-22 08:00:00,
2013-01-22 10:05:00,56.3,46.2,29.80,West,270,1.3,1.3,69,0.00,,,0.00,VWS V14.01,2013-01-22 08:05:00,
2013-01-22 10:10:00,56.5,46.4,29.80,WNW,292,0.0,0.0,69,0.00,,,0.00,VWS V14.01,2013-01-22 08:10:00,
2013-01-22 10:15:00,56.5,46.4,29.80,West,270,0.0,2.6,69,0.00,,,0.00,VWS V14.01,2013-01-22 08:15:00,
2013-01-22 10:20:00,56.7,46.2,29.80,WNW,292,4.6,4.6,68,0.00,,,0.00,VWS V14.01,2013-01-22 08:20:00,
2013-01-22 10:25:00,56.7,46.2,29.80,WNW,292,0.0,0.0,68,0.00,,,0.00,VWS V14.01,2013-01-22 08:25:00,
2013-01-22 10:30:00,56.5,46.0,29.80,WNW,292,5.5,5.5,68,0.00,,,0.00,VWS V14.01,2013-01-22 08:30:00,
2013-01-22 10:35:00,56.3,46.2,29.80,WNW,292,0.0,0.0,69,0.00,,,0.00,VWS V14.01,2013-01-22 08:35:00,
2013-01-22 10:40:00,56.3,46.2,29.81,WNW,292,0.0,0.0,69,0.00,,,0.00,VWS V14.01,2013-01-22 08:40:00,
2013-01-22 10:46:00,56.5,46.0,29.80,West,270,0.0,0.0,68,0.00,,,0.00,VWS V14.01,2013-01-22 08:46:00,
2013-01-22 10:51:00,56.8,46.3,29.80,NNW,338,2.2,2.2,68,0.00,,,0.00,VWS V14.01,2013-01-22 08:51:00,
2013-01-22 10:56:00,56.5,46.8,29.80,NNW,338,7.1,7.1,70,0.00,,,0.00,VWS V14.01,2013-01-22 08:56:00,
2013-01-22 11:01:00,56.3,46.6,29.80,NW,315,3.8,4.0,70,0.00,,,0.00,VWS V14.01,2013-01-22 09:01:00,
2013-01-22 11:06:00,56.3,47.0,29.80,NNW,338,3.5,7.1,71,0.00,,,0.00,VWS V14.01,2013-01-22 09:06:00,
2013-01-22 11:11:00,56.3,47.4,29.80,NW,315,4.6,4.6,72,0.00,,,0.00,VWS V14.01,2013-01-22 09:11:00,
2013-01-22 11:16:00,56.1,47.2,29.80,WNW,292,6.7,10.2,72,0.00,,,0.00,VWS V14.01,2013-01-22 09:16:00,
2013-01-22 11:21:00,56.3,47.7,29.80,West,270,3.5,3.5,73,0.00,,,0.00,VWS V14.01,2013-01-22 09:21:00,
2013-01-22 11:26:00,56.3,47.4,29.80,WNW,292,0.6,0.6,72,0.00,,,0.00,VWS V14.01,2013-01-22 09:26:00,
2013-01-22 11:31:00,57.2,47.9,29.80,NW,315,4.4,4.4,71,0.00,,,0.00,VWS V14.01,2013-01-22 09:31:00,
2013-01-22 11:36:00,57.2,47.5,29.79,NNW,338,1.3,1.3,70,0.00,,,0.00,VWS V14.01,2013-01-22 09:36:00,
2013-01-22 11:41:00,57.4,47.3,29.79,West,270,0.2,0.2,69,0.00,,,0.00,VWS V14.01,2013-01-22 09:41:00,
2013-01-22 11:46:00,57.4,47.3,29.79,NNW,338,0.0,0.0,69,0.00,,,0.00,VWS V14.01,2013-01-22 09:46:00,
2013-01-22 11:51:00,57.7,47.6,29.79,NW,315,0.0,0.0,69,0.00,,,0.00,VWS V14.01,2013-01-22 09:51:00,
2013-01-22 11:56:00,58.8,47.4,29.79,NW,315,0.0,0.0,66,0.00,,,0.00,VWS V14.01,2013-01-22 09:56:00,
2013-01-22 12:01:00,59.4,46.8,29.78,North,0,0.8,3.3,63,0.00,,,0.00,VWS V14.01,2013-01-22 10:01:00,
2013-01-22 12:06:00,59.5,45.6,29.78,North,0,0.4,0.4,60,0.00,,,0.00,VWS V14.01,2013-01-22 10:06:00,
2013-01-22 12:11:00,60.3,45.9,29.78,WNW,292,0.8,6.2,59,0.00,,,0.00,VWS V14.01,2013-01-22 10:11:00,
2013-01-22 12:17:00,61.0,45.6,29.78,WNW,292,0.0,0.0,57,0.00,,,0.00,VWS V14.01,2013-01-22 10:17:00,
2013-01-22 12:22:00,61.5,42.7,29.78,West,270,1.3,1.3,50,0.00,,,0.00,VWS V14.01,2013-01-22 10:22:00,
2013-01-22 12:27:00,61.3,40.9,29.78,SSW,202,6.0,9.1,47,0.00,,,0.00,VWS V14.01,2013-01-22 10:27:00,
2013-01-22 12:32:00,61.5,42.2,29.78,West,270,0.0,0.0,49,0.00,,,0.00,VWS V14.01,2013-01-22 10:32:00,
2013-01-22 12:37:00,61.9,43.0,29.78,SW,225,0.0,0.0,50,0.00,,,0.00,VWS V14.01,2013-01-22 10:37:00,
2013-01-22 12:42:00,62.2,42.8,29.78,WSW,248,0.0,0.0,49,0.00,,,0.00,VWS V14.01,2013-01-22 10:42:00,
2013-01-22 12:47:00,62.8,42.8,29.77,WSW,248,10.9,10.9,48,0.00,,,0.00,VWS V14.01,2013-01-22 10:47:00,
2013-01-22 12:52:00,61.9,43.6,29.77,SW,225,8.2,8.2,51,0.00,,,0.00,VWS V14.01,2013-01-22 10:52:00,
2013-01-22 12:57:00,61.7,42.8,29.77,West,270,0.0,0.0,50,0.00,,,0.00,VWS V14.01,2013-01-22 10:57:00,
2013-01-22 13:02:00,62.1,42.7,29.77,SSW,202,0.0,0.0,49,0.00,,,0.00,VWS V14.01,2013-01-22 11:02:00,
2013-01-22 13:07:00,62.2,43.8,29.77,WSW,248,9.6,9.6,51,0.00,,,0.00,VWS V14.01,2013-01-22 11:07:00,
2013-01-22 13:12:00,62.2,44.8,29.78,WNW,292,0.0,3.1,53,0.00,,,0.00,VWS V14.01,2013-01-22 11:12:00,
2013-01-22 13:17:00,62.6,44.2,29.78,SW,225,3.8,7.1,51,0.00,,,0.00,VWS V14.01,2013-01-22 11:17:00,
2013-01-22 13:22:00,62.2,43.8,29.77,West,270,5.8,8.5,51,0.00,,,0.00,VWS V14.01,2013-01-22 11:22:00,
2013-01-22 13:28:00,62.6,44.2,29.77,WSW,248,4.4,4.6,51,0.00,,,0.00,VWS V14.01,2013-01-22 11:28:00,
2013-01-22 13:33:00,62.6,44.2,29.77,West,270,0.0,0.0,51,0.00,,,0.00,VWS V14.01,2013-01-22 11:33:00,
2013-01-22 13:38:00,62.6,43.7,29.76,SSW,202,18.5,18.5,50,0.00,,,0.00,VWS V14.01,2013-01-22 11:38:00,
2013-01-22 13:43:00,62.6,43.2,29.77,SSW,202,8.2,12.5,49,0.00,,,0.00,VWS V14.01,2013-01-22 11:43:00,
2013-01-22 13:49:00,62.6,43.2,29.76,SSW,202,6.2,19.0,49,0.00,,,0.00,VWS V14.01,2013-01-22 11:49:00,
2013-01-22 13:54:00,62.8,43.3,29.76,SW,225,0.2,3.8,49,0.00,,,0.00,VWS V14.01,2013-01-22 11:54:00,
2013-01-22 13:59:00,63.1,43.6,29.76,SSE,158,5.5,7.6,49,0.00,,,0.00,VWS V14.01,2013-01-22 11:59:00,
2013-01-22 14:04:00,62.6,42.1,29.76,SE,135,4.0,12.5,47,0.00,,,0.00,VWS V14.01,2013-01-22 12:04:00,
2013-01-22 14:09:00,62.6,43.2,29.76,West,270,5.3,5.3,49,0.00,,,0.00,VWS V14.01,2013-01-22 12:09:00,
2013-01-22 14:14:00,63.0,44.0,29.76,West,270,0.0,0.0,50,0.00,,,0.00,VWS V14.01,2013-01-22 12:14:00,
2013-01-22 14:19:00,63.3,43.8,29.76,NW,315,0.0,0.0,49,0.00,,,0.00,VWS V14.01,2013-01-22 12:19:00,
2013-01-22 14:24:00,63.5,44.0,29.76,WSW,248,6.9,6.9,49,0.00,,,0.00,VWS V14.01,2013-01-22 12:24:00,
2013-01-22 14:29:00,63.3,43.3,29.77,West,270,2.2,4.6,48,0.00,,,0.00,VWS V14.01,2013-01-22 12:29:00,
2013-01-22 14:34:00,63.3,43.8,29.77,SW,225,0.0,1.3,49,0.00,,,0.00,VWS V14.01,2013-01-22 12:34:00,
2013-01-22 14:40:00,63.1,43.1,29.77,SW,225,10.5,10.5,48,0.00,,,0.00,VWS V14.01,2013-01-22 12:40:00,
2013-01-22 14:45:00,62.8,42.8,29.77,SW,225,0.0,0.0,48,0.00,,,0.00,VWS V14.01,2013-01-22 12:45:00,
2013-01-22 14:50:00,63.1,43.6,29.76,SSW,202,0.0,0.0,49,0.00,,,0.00,VWS V14.01,2013-01-22 12:50:00,
2013-01-22 14:55:00,63.5,44.0,29.76,South,180,0.0,0.0,49,0.00,,,0.00,VWS V14.01,2013-01-22 12:55:00,
2013-01-22 15:00:00,63.5,45.0,29.76,SSE,158,0.0,0.0,51,0.00,,,0.00,VWS V14.01,2013-01-22 13:00:00,
2013-01-22 15:05:00,63.1,44.7,29.77,ESE,112,10.7,10.7,51,0.00,,,0.00,VWS V14.01,2013-01-22 13:05:00,
2013-01-22 15:11:00,62.6,44.7,29.77,SSE,158,1.3,4.0,52,0.00,,,0.00,VWS V14.01,2013-01-22 13:11:00,
2013-01-22 15:16:00,62.6,45.7,29.77,South,180,0.0,2.9,54,0.00,,,0.00,VWS V14.01,2013-01-22 13:16:00,
2013-01-22 15:21:00,62.2,45.3,29.77,South,180,4.6,4.6,54,0.00,,,0.00,VWS V14.01,2013-01-22 13:21:00,
2013-01-22 15:26:00,61.7,44.4,29.77,SSE,158,8.5,8.5,53,0.00,,,0.00,VWS V14.01,2013-01-22 13:26:00,
2013-01-22 15:31:00,61.7,45.3,29.77,SSE,158,5.8,8.5,55,0.00,,,0.00,VWS V14.01,2013-01-22 13:31:00,
2013-01-22 15:37:00,61.5,45.6,29.78,SSE,158,2.9,2.9,56,0.00,,,0.00,VWS V14.01,2013-01-22 13:37:00,
2013-01-22 15:42:00,60.6,45.7,29.78,SSE,158,4.2,4.2,58,0.00,,,0.00,VWS V14.01,2013-01-22 13:42:00,
2013-01-22 15:47:00,60.4,46.0,29.78,South,180,0.2,0.2,59,0.00,,,0.00,VWS V14.01,2013-01-22 13:47:00,
2013-01-22 15:52:00,60.6,46.6,29.78,SSE,158,3.1,3.1,60,0.00,,,0.00,VWS V14.01,2013-01-22 13:52:00,
2013-01-22 15:57:00,60.8,45.9,29.78,SSE,158,4.6,4.6,58,0.00,,,0.00,VWS V14.01,2013-01-22 13:57:00,
2013-01-22 16:02:00,60.8,45.9,29.77,South,180,0.0,0.0,58,0.00,,,0.00,VWS V14.01,2013-01-22 14:02:00,
2013-01-22 16:07:00,60.8,45.5,29.77,SSE,158,2.0,10.7,57,0.00,,,0.00,VWS V14.01,2013-01-22 14:07:00,
2013-01-22 16:12:00,60.8,45.0,29.77,South,180,2.2,2.2,56,0.00,,,0.00,VWS V14.01,2013-01-22 14:12:00,
2013-01-22 16:18:00,60.8,45.5,29.77,South,180,0.4,5.3,57,0.00,,,0.00,VWS V14.01,2013-01-22 14:18:00,
2013-01-22 16:23:00,60.3,45.9,29.77,SSE,158,0.0,0.0,59,0.00,,,0.00,VWS V14.01,2013-01-22 14:23:00,
2013-01-22 16:28:00,60.1,46.2,29.78,SSW,202,0.0,0.0,60,0.00,,,0.00,VWS V14.01,2013-01-22 14:28:00,
2013-01-22 16:33:00,60.4,46.0,29.77,SSW,202,9.3,9.3,59,0.00,,,0.00,VWS V14.01,2013-01-22 14:33:00,
2013-01-22 16:38:00,60.4,45.5,29.77,SSE,158,0.0,0.0,58,0.00,,,0.00,VWS V14.01,2013-01-22 14:38:00,
2013-01-22 16:43:00,60.6,45.3,29.77,South,180,5.8,7.6,57,0.00,,,0.00,VWS V14.01,2013-01-22 14:43:00,
2013-01-22 16:49:00,60.4,45.1,29.77,SSW,202,0.0,0.0,57,0.00,,,0.00,VWS V14.01,2013-01-22 14:49:00,
2013-01-22 16:54:00,60.1,44.8,29.78,SSW,202,0.0,0.0,57,0.00,,,0.00,VWS V14.01,2013-01-22 14:54:00,
2013-01-22 16:59:00,59.5,44.2,29.78,South,180,7.1,7.1,57,0.00,,,0.00,VWS V14.01,2013-01-22 14:59:00,
2013-01-22 17:04:00,59.4,44.6,29.78,South,180,4.2,4.2,58,0.00,,,0.00,VWS V14.01,2013-01-22 15:04:00,
2013-01-22 17:09:00,59.0,44.7,29.78,South,180,3.5,3.5,59,0.00,,,0.00,VWS V14.01,2013-01-22 15:09:00,
2013-01-22 17:14:00,58.8,44.5,29.78,South,180,0.8,0.8,59,0.00,,,0.00,VWS V14.01,2013-01-22 15:14:00,
2013-01-22 17:19:00,59.0,44.7,29.78,South,180,1.5,1.5,59,0.00,,,0.00,VWS V14.01,2013-01-22 15:19:00,
2013-01-22 17:24:00,59.0,44.2,29.78,SSW,202,3.8,3.8,58,0.00,,,0.00,VWS V14.01,2013-01-22 15:24:00,
2013-01-22 17:30:00,59.0,43.8,29.77,South,180,7.1,8.2,57,0.00,,,0.00,VWS V14.01,2013-01-22 15:30:00,
2013-01-22 17:35:00,59.0,43.8,29.78,South,180,6.0,6.0,57,0.00,,,0.00,VWS V14.01,2013-01-22 15:35:00,
2013-01-22 17:40:00,59.0,43.3,29.78,SW,225,13.1,13.1,56,0.00,,,0.00,VWS V14.01,2013-01-22 15:40:00,
2013-01-22 17:45:00,59.0,43.3,29.77,SSW,202,2.4,2.4,56,0.00,,,0.00,VWS V14.01,2013-01-22 15:45:00,
2013-01-22 17:50:00,59.0,43.3,29.78,SW,225,0.0,0.0,56,0.00,,,0.00,VWS V14.01,2013-01-22 15:50:00,
2013-01-22 17:55:00,58.6,43.4,29.78,SSW,202,7.3,7.3,57,0.00,,,0.00,VWS V14.01,2013-01-22 15:55:00,
2013-01-22 18:01:00,58.6,42.9,29.78,SSW,202,4.6,12.0,56,0.00,,,0.00,VWS V14.01,2013-01-22 16:01:00,
2013-01-22 18:06:00,59.0,42.8,29.79,SSW,202,13.1,13.1,55,0.00,,,0.00,VWS V14.01,2013-01-22 16:06:00,
2013-01-22 18:11:00,59.0,43.3,29.79,SSW,202,7.1,7.1,56,0.00,,,0.00,VWS V14.01,2013-01-22 16:11:00,
2013-01-22 18:16:00,59.0,43.3,29.78,South,180,8.9,9.1,56,0.00,,,0.00,VWS V14.01,2013-01-22 16:16:00,
2013-01-22 18:21:00,59.0,42.8,29.78,SSW,202,10.9,10.9,55,0.00,,,0.00,VWS V14.01,2013-01-22 16:21:00,
2013-01-22 18:27:00,59.2,43.0,29.78,SSE,158,8.7,12.0,55,0.00,,,0.00,VWS V14.01,2013-01-22 16:27:00,
2013-01-22 18:32:00,59.2,43.0,29.78,SW,225,10.0,10.0,55,0.00,,,0.00,VWS V14.01,2013-01-22 16:32:00,
2013-01-22 18:37:00,59.0,42.8,29.79,SW,225,7.1,7.1,55,0.00,,,0.00,VWS V14.01,2013-01-22 16:37:00,
2013-01-22 18:42:00,59.0,44.2,29.79,South,180,2.2,2.2,58,0.00,,,0.00,VWS V14.01,2013-01-22 16:42:00,
2013-01-22 18:47:00,58.5,45.9,29.79,SSW,202,7.8,7.8,63,0.00,,,0.00,VWS V14.01,2013-01-22 16:47:00,
2013-01-22 18:52:00,58.1,45.5,29.79,SSW,202,2.2,4.2,63,0.00,,,0.00,VWS V14.01,2013-01-22 16:52:00,
2013-01-22 18:57:00,57.7,45.6,29.79,SSW,202,0.0,0.0,64,0.00,,,0.00,VWS V14.01,2013-01-22 16:57:00,
2013-01-22 19:03:00,57.4,45.3,29.79,SSW,202,0.0,0.0,64,0.00,,,0.00,VWS V14.01,2013-01-22 17:03:00,
2013-01-22 19:08:00,56.8,45.1,29.80,SSW,202,0.0,0.0,65,0.00,,,0.00,VWS V14.01,2013-01-22 17:08:00,
2013-01-22 19:13:00,56.7,45.4,29.80,SSW,202,0.0,0.0,66,0.00,,,0.00,VWS V14.01,2013-01-22 17:13:00,
2013-01-22 19:18:00,56.5,45.7,29.80,South,180,4.4,4.4,67,0.00,,,0.00,VWS V14.01,2013-01-22 17:18:00,
2013-01-22 19:23:00,56.5,46.0,29.80,SSE,158,0.0,0.0,68,0.00,,,0.00,VWS V14.01,2013-01-22 17:23:00,
2013-01-22 19:28:00,56.1,46.4,29.80,SSE,158,5.3,5.3,70,0.00,,,0.00,VWS V14.01,2013-01-22 17:28:00,
2013-01-22 19:33:00,55.8,46.5,29.80,SSE,158,0.0,0.0,71,0.00,,,0.00,VWS V14.01,2013-01-22 17:33:00,
2013-01-22 19:39:00,55.6,46.3,29.80,SSE,158,0.0,0.0,71,0.00,,,0.00,VWS V14.01,2013-01-22 17:39:00,
2013-01-22 19:44:00,55.9,47.0,29.80,SSW,202,7.8,7.8,72,0.00,,,0.00,VWS V14.01,2013-01-22 17:44:00,
2013-01-22 19:49:00,56.7,47.0,29.81,SW,225,7.6,7.6,70,0.00,,,0.00,VWS V14.01,2013-01-22 17:49:00,
2013-01-22 19:54:00,57.2,46.7,29.81,South,180,3.8,9.1,68,0.00,,,0.00,VWS V14.01,2013-01-22 17:54:00,
2013-01-22 19:59:00,57.2,46.7,29.81,South,180,6.9,9.3,68,0.00,,,0.00,VWS V14.01,2013-01-22 17:59:00,
2013-01-22 20:05:00,57.2,46.7,29.80,South,180,4.0,4.0,68,0.00,,,0.00,VWS V14.01,2013-01-22 18:05:00,
2013-01-22 20:10:00,57.2,46.7,29.80,South,180,0.2,6.9,68,0.00,,,0.00,VWS V14.01,2013-01-22 18:10:00,
2013-01-22 20:15:00,57.2,47.1,29.81,South,180,5.1,7.8,69,0.00,,,0.00,VWS V14.01,2013-01-22 18:15:00,
2013-01-22 20:20:00,57.0,47.3,29.81,South,180,4.9,4.9,70,0.00,,,0.00,VWS V14.01,2013-01-22 18:20:00,
2013-01-22 20:25:00,57.2,47.5,29.81,South,180,5.3,5.3,70,0.00,,,0.00,VWS V14.01,2013-01-22 18:25:00,
2013-01-22 20:30:00,57.0,46.1,29.81,SSW,202,15.2,15.2,67,0.00,,,0.00,VWS V14.01,2013-01-22 18:30:00,
2013-01-22 20:36:00,57.7,44.8,29.81,SSE,158,7.3,13.1,62,0.00,,,0.00,VWS V14.01,2013-01-22 18:36:00,
2013-01-22 20:41:00,57.7,45.6,29.81,SW,225,7.3,7.3,64,0.00,,,0.00,VWS V14.01,2013-01-22 18:41:00,
2013-01-22 20:47:00,57.4,45.7,29.81,SSW,202,1.7,1.7,65,0.00,,,0.00,VWS V14.01,2013-01-22 18:47:00,
2013-01-22 20:52:00,57.4,45.3,29.81,SSW,202,5.5,8.0,64,0.00,,,0.00,VWS V14.01,2013-01-22 18:52:00,
2013-01-22 20:57:00,57.6,45.1,29.81,South,180,6.9,9.3,63,0.00,,,0.00,VWS V14.01,2013-01-22 18:57:00,
2013-01-22 21:02:00,57.7,46.0,29.80,SW,225,2.4,2.4,65,0.00,,,0.00,VWS V14.01,2013-01-22 19:02:00,
2013-01-22 21:08:00,57.2,45.9,29.80,SW,225,0.4,6.4,66,0.00,,,0.00,VWS V14.01,2013-01-22 19:08:00,
2013-01-22 21:13:00,57.2,45.5,29.81,SW,225,0.2,5.1,65,0.00,,,0.00,VWS V14.01,2013-01-22 19:13:00,
2013-01-22 21:18:00,57.2,44.7,29.80,SW,225,0.0,0.0,63,0.00,,,0.00,VWS V14.01,2013-01-22 19:18:00,
2013-01-22 21:23:00,57.4,41.8,29.81,SSW,202,7.3,7.3,56,0.00,,,0.00,VWS V14.01,2013-01-22 19:23:00,
2013-01-22 21:28:00,58.1,41.0,29.81,SSW,202,8.2,8.2,53,0.00,,,0.00,VWS V14.01,2013-01-22 19:28:00,
2013-01-22 21:34:00,58.6,40.5,29.81,WSW,248,6.4,8.5,51,0.00,,,0.00,VWS V14.01,2013-01-22 19:34:00,
2013-01-22 21:39:00,58.8,40.2,29.81,SW,225,6.7,7.8,50,0.00,,,0.00,VWS V14.01,2013-01-22 19:39:00,
2013-01-22 21:44:00,59.0,40.4,29.81,SW,225,5.1,8.7,50,0.00,,,0.00,VWS V14.01,2013-01-22 19:44:00,
2013-01-22 21:49:00,59.0,40.4,29.81,SSW,202,1.1,1.1,50,0.00,,,0.00,VWS V14.01,2013-01-22 19:49:00,
2013-01-22 21:54:00,58.6,40.5,29.81,WSW,248,0.0,0.0,51,0.00,,,0.00,VWS V14.01,2013-01-22 19:54:00,
2013-01-22 21:59:00,58.5,41.4,29.81,SSW,202,4.9,4.9,53,0.00,,,0.00,VWS V14.01,2013-01-22 19:59:00,
2013-01-22 22:04:00,58.3,41.2,29.82,SSW,202,0.0,0.2,53,0.00,,,0.00,VWS V14.01,2013-01-22 20:04:00,
2013-01-22 22:09:00,58.1,41.5,29.82,SSW,202,1.3,1.3,54,0.00,,,0.00,VWS V14.01,2013-01-22 20:09:00,
2013-01-22 22:14:00,58.3,41.2,29.82,SSW,202,2.2,2.2,53,0.00,,,0.00,VWS V14.01,2013-01-22 20:14:00,
2013-01-22 22:19:00,58.3,41.7,29.82,WSW,248,0.0,1.1,54,0.00,,,0.00,VWS V14.01,2013-01-22 20:19:00,
2013-01-22 22:25:00,58.3,41.7,29.82,WSW,248,3.1,3.1,54,0.00,,,0.00,VWS V14.01,2013-01-22 20:25:00,
2013-01-22 22:30:00,58.1,42.0,29.82,West,270,8.2,8.2,55,0.00,,,0.00,VWS V14.01,2013-01-22 20:30:00,
2013-01-22 22:35:00,58.1,42.5,29.82,West,270,0.0,0.0,56,0.00,,,0.00,VWS V14.01,2013-01-22 20:35:00,
2013-01-22 22:40:00,58.1,42.9,29.82,West,270,1.1,1.1,57,0.00,,,0.00,VWS V14.01,2013-01-22 20:40:00,
2013-01-22 22:46:00,57.9,43.2,29.82,West,270,4.6,4.6,58,0.00,,,0.00,VWS V14.01,2013-01-22 20:46:00,
2013-01-22 22:51:00,57.7,43.0,29.82,West,270,4.6,4.6,58,0.00,,,0.00,VWS V14.01,2013-01-22 20:51:00,
2013-01-22 22:56:00,57.9,43.6,29.82,West,270,2.9,2.9,59,0.00,,,0.00,VWS V14.01,2013-01-22 20:56:00,
2013-01-22 23:01:00,57.7,43.9,29.83,WNW,292,0.0,0.0,60,0.00,,,0.00,VWS V14.01,2013-01-22 21:01:00,
2013-01-22 23:06:00,57.6,44.7,29.83,West,270,4.2,4.9,62,0.00,,,0.00,VWS V14.01,2013-01-22 21:06:00,
2013-01-22 23:12:00,57.2,45.1,29.82,WNW,292,5.1,8.9,64,0.00,,,0.00,VWS V14.01,2013-01-22 21:12:00,
2013-01-22 23:17:00,57.2,45.5,29.82,West,270,0.0,0.0,65,0.00,,,0.00,VWS V14.01,2013-01-22 21:17:00,
2013-01-22 23:22:00,57.2,45.9,29.82,West,270,0.0,1.5,66,0.00,,,0.00,VWS V14.01,2013-01-22 21:22:00,
2013-01-22 23:27:00,57.0,45.7,29.82,SW,225,0.0,0.0,66,0.00,,,0.00,VWS V14.01,2013-01-22 21:27:00,
2013-01-22 23:31:00,56.8,45.1,29.82,SW,225,10.2,10.2,65,0.00,,,0.00,VWS V14.01,2013-01-22 21:31:00,
2013-01-22 23:36:00,56.8,44.3,29.82,SSW,202,2.0,2.0,63,0.00,,,0.00,VWS V14.01,2013-01-22 21:36:00,
2013-01-22 23:42:00,56.7,44.2,29.82,West,270,2.0,4.4,63,0.00,,,0.00,VWS V14.01,2013-01-22 21:42:00,
2013-01-22 23:47:00,56.7,44.2,29.82,WSW,248,0.6,0.6,63,0.00,,,0.00,VWS V14.01,2013-01-22 21:47:00,
2013-01-22 23:53:00,56.7,44.6,29.82,West,270,2.9,6.0,64,0.00,,,0.00,VWS V14.01,2013-01-22 21:53:00,
2013-01-22 23:58:00,56.5,44.5,29.83,WSW,248,4.4,9.1,64,0.00,,,0.00,VWS V14.01,2013-01-22 21:58:00,